GFSWCAN_850_dewp_297.txt.gz
Dewpoint
-2 -2 -2 1 2 1 1 2 2 3 3 3 1 -1 -4 -5 -7 -8 -5 -5 -3 -3 -2 -2 -3 -4 -4 -4 -1 -5 -3 -5 -3 -1 0 -1 -2 -3 -4 -3 -3 -3 -1 -1 -2 -1 -1 -5 -4 -3 -4 -4 -4 -4
-3 -5 -6 -5 -7 -9 -8 -6 -2 1 3 3 2 0 0 -1 -3 -4 -3 -3 -3 -3 -3 -3 -3 -3 -4 -4 -5 -6 -4 -6 -6 0 -2 -2 0 -1 -3 -2 -4 -2 -3 -1 -2 -3 -5 -4 -4 -4 -5 -5 -6 -6
-4 -4 -6 -7 -9 -9 -9 -9 -9 -9 -9 -8 -4 -8 -11 -6 -4 -1 -2 -3 -3 -4 -3 -3 -2 -2 -3 -4 -6 -6 -6 -7 -7 -7 -3 -1 1 -1 1 -1 -3 -3 -4 -3 -3 -4 -4 -4 -4 -4 -5 -6 -6 -6
-8 -7 -6 -6 -7 -10 -12 -10 -8 -8 -11 -13 -14 -14 -15 -13 -11 -5 -3 -2 -1 -3 -3 -3 -4 -3 -2 -3 -5 -6 -6 -9 -6 -3 -2 0 2 -3 0 -1 -2 -3 -3 -3 -3 -3 -3 -4 -4 -4 -6 -6 -6 -5
-5 -7 -6 -6 -7 -8 -10 -14 -12 -9 -10 -10 -12 -14 -15 -16 -13 -9 -7 -7 -7 -10 -2 -3 -4 -3 -2 -3 -3 -4 -6 -7 -4 -3 -2 1 -3 -2 -3 -2 -1 -3 -2 -1 -0 -4 -3 -4 -4 -5 -5 -5 -5 -5
-4 -5 -6 -7 -8 -10 -10 -12 -15 -15 -12 -12 -11 -11 -12 -10 -9 -11 -10 -9 -11 -16 -8 -1 -2 -1 -1 -1 -2 -2 -3 -3 -3 -3 -3 -3 -2 -3 -1 -0 -4 -5 -4 -4 -5 -6 -4 -4 -4 -4 -5 -5 -5 -4
-8 -10 -10 -10 -10 -11 -11 -12 -12 -12 -10 -9 -10 -10 -9 -9 -10 -16 -10 -6 -12 -16 -11 -1 -2 -3 -2 -2 -2 -2 -3 -3 -4 -4 -3 -3 -2 -3 -3 -2 -8 -10 -7 -5 -4 -4 -4 -3 -4 -4 -4 -5 -4 -4
-11 -12 -11 -11 -11 -11 -10 -9 -6 -5 -6 -7 -7 -7 -9 -13 -12 -5 -5 -6 -11 -14 -7 -2 -2 -2 -3 -4 -3 -4 -4 -5 -5 -4 -4 -3 -3 -3 -1 -4 -5 -5 -5 -4 -3 -3 -3 -3 -4 -4 -4 -5 -4 -5
-10 -9 -7 -6 -7 -7 -7 -6 -5 -5 -6 -7 -7 -7 -9 -10 -7 -4 -5 -9 -12 -12 -4 -4 -2 -1 -2 -3 -3 -3 -5 -3 -4 -3 -3 -3 -4 -2 -4 -6 -6 -6 -5 -4 -3 -3 -4 -4 -4 -4 -4 -4 -5 -6
-11 -9 -8 -7 -7 -7 -6 -5 -5 -4 -6 -6 -10 -9 -5 -5 -6 -8 -9 -10 -11 -6 -4 -3 -2 -2 -3 -3 -3 -4 -4 -3 -3 -4 -3 -3 -3 -6 -6 -5 -6 -5 -4 -4 -3 -4 -4 -4 -4 -5 -5 -5 -6 -6
-10 -8 -8 -9 -9 -9 -9 -8 -7 -7 -7 -12 -11 -4 -5 -7 -9 -8 -7 -6 -6 -4 -3 -3 -3 -2 -3 -3 -3 -5 -4 -4 -3 -3 -3 -3 -3 -4 -3 -3 -3 -4 -4 -4 -4 -4 -4 -4 -5 -5 -5 -5 -6 -6
-11 -10 -10 -11 -12 -13 -12 -11 -11 -12 -13 -10 -8 -7 -8 -8 -8 -7 -5 -4 -4 -3 -3 -1 -2 -2 -2 -4 -5 -3 -3 -3 -3 -3 -2 -2 -3 -5 -3 -3 -3 -4 -4 -3 -3 -3 -4 -5 -6 -6 -6 -6 -6 -6
-10 -10 -11 -11 -12 -13 -13 -13 -11 -10 -10 -13 -11 -10 -10 -8 -9 -8 -4 -3 -3 -3 -3 -1 -1 -0 -1 -2 -3 -3 -3 -2 -3 -1 -3 -3 -5 -4 -4 -3 -3 -4 -3 -3 -3 -3 -4 -8 -7 -6 -6 -6 -7 -7
-8 -8 -9 -10 -10 -11 -12 -11 -10 -11 -12 -13 -11 -9 -7 -7 -6 -6 -5 -4 -4 -3 -2 -3 -1 -1 -1 -2 -2 -3 -3 -2 -1 -2 -3 -4 -6 -4 -3 -3 -3 -3 -3 -3 -3 -4 -7 -8 -7 -7 -7 -7 -8 -8
-6 -7 -8 -9 -9 -10 -11 -12 -12 -12 -12 -11 -11 -8 -6 -6 -5 -5 -5 -2 -1 -2 -3 -3 -2 -2 -2 -2 -3 -3 -2 -2 -3 -3 -3 -5 -3 -3 -3 -3 -3 -3 -3 -3 -5 -7 -8 -7 -7 -8 -8 -8 -8 -9
-5 -6 -7 -8 -8 -8 -9 -10 -11 -12 -11 -9 -7 -7 -6 -6 -6 -6 -6 -2 -2 -2 -3 -3 -3 -3 -3 -2 -2 -3 -4 -4 -4 -4 -4 -3 -2 -2 -3 -2 -3 -4 -4 -5 -7 -8 -8 -8 -8 -8 -9 -9 -9 -9
-4 -5 -5 -6 -6 -7 -8 -10 -10 -10 -10 -9 -6 -6 -6 -6 -5 -3 -3 -3 -1 -1 -1 -2 -2 -3 -3 -2 -2 -4 -3 -3 -2 -1 -2 -2 -2 -2 -3 -2 -2 -3 -4 -5 -8 -8 -8 -8 -9 -9 -9 -9 -9 -9
-4 -5 -5 -5 -5 -7 -8 -8 -7 -7 -7 -7 -7 -7 -7 -6 -4 -4 -2 -2 -3 -4 -3 -2 -2 -2 -2 -3 -3 -2 -2 -2 -2 -1 -1 -1 -1 -1 -2 -2 -2 -2 -4 -6 -8 -9 -9 -9 -9 -10 -10 -10 -10 -10
-5 -5 -5 -6 -6 -7 -7 -6 -8 -8 -7 -7 -7 -7 -8 -8 -8 -8 -8 -10 -10 -6 -4 -3 -3 -4 -3 -2 -2 -2 -2 -2 -3 -4 -3 -1 -1 -1 -1 -2 -3 -2 -3 -6 -8 -9 -10 -10 -10 -10 -10 -10 -10 -11
-5 -5 -6 -6 -6 -8 -8 -8 -8 -8 -7 -7 -7 -7 -8 -9 -9 -9 -10 -10 -8 -7 -4 -4 -4 -4 -2 -2 -2 -3 -3 -5 -7 -5 -6 -6 -5 -3 -1 -2 -2 -3 -3 -5 -7 -9 -10 -10 -10 -10 -10 -10 -10 -10
-5 -6 -6 -7 -8 -10 -12 -11 -8 -8 -8 -8 -9 -10 -10 -10 -10 -10 -11 -10 -9 -9 -6 -7 -8 -8 -7 -8 -4 -5 -8 -10 -12 -12 -9 -8 -7 -7 -4 -2 -2 -3 -3 -4 -6 -8 -10 -12 -12 -11 -12 -11 -11 -11
-6 -5 -6 -7 -10 -11 -13 -12 -10 -9 -8 -7 -7 -8 -8 -9 -10 -11 -11 -10 -11 -13 -12 -12 -12 -12 -11 -12 -13 -16 -13 -13 -14 -12 -11 -11 -9 -9 -5 -3 -2 -3 -3 -4 -5 -6 -8 -10 -12 -12 -13 -12 -11 -12
-8 -9 -12 -13 -14 -13 -11 -11 -11 -11 -11 -12 -9 -9 -8 -8 -10 -9 -8 -9 -10 -11 -13 -14 -14 -15 -14 -14 -13 -13 -14 -16 -16 -14 -12 -13 -13 -8 -5 -3 -2 -2 -3 -4 -5 -5 -7 -9 -12 -13 -13 -13 -14 -14
-12 -14 -14 -11 -11 -10 -9 -8 -10 -9 -10 -10 -10 -11 -13 -14 -11 -7 -8 -10 -14 -16 -15 -13 -13 -13 -13 -11 -11 -11 -12 -11 -11 -14 -13 -10 -9 -9 -8 -3 -2 -1 -2 -3 -4 -5 -7 -8 -10 -12 -12 -14 -17 -18
-17 -13 -13 -10 -9 -9 -11 -10 -9 -9 -10 -11 -10 -12 -13 -12 -10 -10 -10 -13 -12 -13 -10 -8 -8 -8 -9 -9 -7 -7 -6 -6 -8 -9 -12 -8 -9 -10 -8 -2 -2 -2 -1 -2 -2 -3 -5 -7 -9 -12 -13 -14 -16 -17
-17 -14 -13 -13 -11 -11 -11 -11 -13 -12 -12 -12 -11 -13 -12 -11 -12 -13 -10 -9 -10 -10 -10 -10 -10 -9 -8 -6 -5 -5 -5 -5 -6 -8 -11 -11 -9 -7 -7 -5 -4 -3 -1 -1 -1 -1 -2 -3 -6 -8 -9 -11 -13 -14
-17 -15 -15 -14 -12 -11 -11 -10 -12 -12 -14 -14 -12 -11 -12 -13 -12 -11 -10 -11 -12 -14 -14 -15 -15 -13 -10 -6 -5 -5 -5 -5 -4 -5 -6 -8 -8 -8 -7 -5 -5 -4 -2 -2 -3 -2 -2 -2 -2 -3 -5 -6 -7 -9
-13 -14 -14 -12 -11 -11 -15 -14 -14 -14 -13 -13 -11 -11 -11 -11 -11 -8 -8 -9 -12 -14 -15 -16 -16 -16 -11 -8 -9 -10 -10 -9 -5 -6 -6 -5 -4 -4 -3 -3 -3 -3 -3 -3 -3 -2 -3 -4 -4 -4 -3 -3 -3 -4
-12 -13 -13 -13 -13 -14 -15 -15 -15 -15 -14 -13 -11 -12 -14 -13 -9 -10 -12 -13 -14 -15 -15 -15 -16 -18 -18 -14 -14 -11 -13 -15 -14 -15 -14 -13 -11 -9 -9 -6 -5 -4 -3 -3 -3 -4 -4 -3 -3 -2 -2 -2 -3 -2
-13 -12 -13 -14 -16 -15 -16 -16 -16 -17 -16 -16 -15 -15 -15 -15 -15 -15 -16 -17 -17 -17 -19 -19 -18 -19 -19 -18 -17 -14 -14 -14 -15 -15 -15 -14 -12 -10 -9 -10 -10 -8 -6 -6 -5 -3 -2 -2 -3 -2 -2 -2 -2 -2
-13 -12 -14 -16 -17 -18 -19 -19 -19 -18 -17 -18 -17 -15 -16 -15 -16 -16 -17 -18 -19 -21 -21 -21 -20 -19 -17 -18 -17 -14 -14 -14 -15 -16 -16 -16 -17 -17 -18 -15 -12 -12 -11 -10 -8 -6 -6 -6 -4 -2 -2 -1 -1 -1
-12 -12 -13 -16 -14 -15 -16 -16 -16 -16 -15 -15 -15 -15 -15 -15 -16 -17 -20 -20 -21 -21 -21 -18 -14 -16 -16 -14 -12 -13 -14 -16 -18 -18 -18 -17 -14 -14 -14 -12 -11 -8 -6 -5 -5 -5 -5 -6 -6 -6 -4 -2 -2 -2
-13 -13 -12 -13 -14 -15 -15 -15 -15 -14 -14 -14 -15 -15 -15 -15 -15 -17 -17 -17 -16 -16 -18 -17 -12 -15 -15 -14 -15 -14 -15 -18 -19 -18 -18 -17 -13 -9 -7 -6 -6 -6 -6 -6 -6 -6 -5 -4 -4 -4 -4 -3 -2 -2

GFSWCAN_850_dewp_300.txt.gz
Dewpoint
-1 -1 -1 -0 -0 0 2 4 4 3 1 1 -3 -4 -1 -3 -5 -5 -4 -3 -3 -2 -2 -3 -4 -2 -3 -1 -0 -2 -3 -3 -3 -0 1 3 0 -6 -6 -6 -4 -4 -1 -1 -3 -1 1 -7 -5 -3 -2 -2 -3 -3
-1 -1 -1 -1 -0 0 -0 -1 -3 -1 -7 -6 -7 -9 -6 -7 -8 -7 -5 -6 -3 -3 -2 -3 -4 -5 -5 -5 -3 -3 0 -3 -2 0 0 -1 2 -1 -4 -3 -5 -3 -6 -3 -3 -5 -4 -5 -3 -2 -3 -3 -3 -3
-3 -2 -2 -2 -1 1 1 1 -0 -3 -5 -6 -7 -9 -11 -11 -11 -7 -5 -4 -3 -2 -1 -1 -2 -3 -4 -5 -6 -1 -3 -3 -3 -2 0 2 7 -3 1 -4 -5 -4 -4 -4 -3 -7 -5 -4 -3 -3 -3 -3 -4 -3
-4 -3 -3 -2 -1 -2 -2 0 3 3 3 1 -1 -2 -4 -6 -5 -3 -3 -3 -3 -3 -1 -1 -3 -2 -2 -5 -6 -6 -5 -7 -6 -0 1 2 6 -1 1 -2 -4 -5 -3 -4 -4 -5 -3 -4 -4 -3 -3 -3 -3 -3
-4 -5 -7 -8 -2 -1 -1 -3 -5 -1 2 3 3 3 2 3 3 3 1 0 -1 -1 0 -1 -2 -1 -2 -3 -5 -4 -7 -6 -1 -0 2 5 0 0 -1 -1 -1 -4 -5 -2 -4 -4 -1 -2 -2 -3 -3 -3 -3 -3
-4 -6 -7 -9 -10 -6 -5 -4 -4 -6 -10 -9 -10 -7 -3 -2 -2 -2 -1 -0 -0 -2 -5 2 -2 -1 -1 -1 -2 -4 -4 -5 -2 1 2 -0 -1 -0 4 1 -5 -5 -4 -3 -1 -3 -2 -5 -3 -3 -2 -3 -3 -3
-4 -5 -8 -9 -10 -10 -10 -9 -8 -6 -7 -6 -4 -5 -8 -8 -7 -8 -8 -8 -12 -16 -10 0 -1 -1 -2 -2 -2 -2 -3 -3 -1 -0 1 -0 -1 -1 2 1 -8 -6 -6 -3 -2 -4 -3 -3 -2 -2 -2 -3 -3 -3
-9 -9 -9 -9 -9 -9 -8 -8 -8 -8 -8 -7 -8 -6 -7 -10 -14 -7 -6 -10 -13 -16 -9 2 -1 -1 -3 -1 0 -3 -1 -1 -3 -0 -1 -1 -2 -1 2 -4 -5 -4 -3 -3 -2 -3 -2 -3 -3 -2 -2 -2 -3 -3
-9 -7 -7 -7 -6 -4 -4 -5 -5 -5 -7 -9 -10 -11 -10 -11 -7 -8 -10 -13 -16 -14 -2 -2 -1 0 -2 -1 -1 -1 -2 2 -2 -0 -2 -3 -2 1 -5 -6 -5 -4 -3 -1 -2 -3 -3 -3 -2 -2 -2 -3 -3 -4
-8 -7 -6 -6 -5 -4 -4 -5 -5 -6 -7 -9 -11 -11 -8 -6 -8 -11 -13 -14 -15 -8 -3 -2 -3 -1 -2 -1 -1 -1 -1 -1 -0 -3 -3 -1 -4 -7 -6 -5 -4 -6 -5 -4 -3 -2 -2 -2 -2 -2 -3 -3 -3 -5
-6 -6 -6 -6 -5 -5 -4 -5 -6 -7 -11 -16 -9 -3 -6 -8 -11 -10 -7 -3 -3 -2 -2 -2 -3 -2 -2 -1 -1 -3 -1 -3 -2 -2 -3 -3 -4 -4 -3 -3 -3 -3 -5 -4 -3 -4 -4 -3 -2 -3 -3 -4 -5 -6
-8 -9 -9 -9 -9 -8 -8 -7 -8 -11 -16 -10 -9 -9 -11 -11 -9 -3 -4 -5 -5 -4 -2 -2 -2 -2 -1 -3 -2 -2 -2 -3 -2 -2 -1 -1 -4 -4 -3 -4 -4 -4 -4 -4 -4 -4 -4 -4 -3 -4 -5 -6 -6 -6
-9 -10 -12 -12 -12 -12 -12 -11 -11 -11 -13 -14 -14 -13 -7 -9 -3 -7 -4 -4 -2 -3 -2 -1 -1 -1 -1 -1 -2 -2 -2 -1 -3 -1 -2 -4 -5 -4 -2 -4 -4 -4 -4 -3 -4 -4 -4 -5 -6 -6 -6 -6 -6 -6
-10 -12 -13 -14 -14 -12 -10 -11 -13 -14 -14 -14 -9 -6 -4 -5 -6 -5 -5 -3 -3 -2 -2 -1 -1 -2 -0 -2 -2 -2 -3 -2 -1 -1 -2 -4 -3 -2 -3 -4 -4 -4 -4 -3 -3 -4 -4 -7 -7 -7 -7 -7 -7 -7
-10 -10 -11 -12 -13 -14 -13 -13 -13 -13 -13 -8 -7 -5 -5 -4 -3 -3 -2 -1 -1 -2 -3 -1 -1 -1 -2 -2 -2 -3 -2 -2 -3 -4 -4 -1 -1 -2 -3 -3 -3 -4 -4 -4 -4 -4 -7 -8 -7 -7 -7 -7 -8 -8
-9 -9 -9 -9 -9 -10 -10 -11 -12 -12 -12 -6 -6 -5 -4 -3 -3 -2 -0 -1 -1 -2 -3 -3 -3 -2 -2 -2 -2 -2 -4 -5 -4 -3 -1 -2 -1 -2 -3 -3 -4 -3 -3 -4 -5 -7 -8 -8 -8 -8 -8 -8 -8 -8
-6 -7 -8 -7 -7 -8 -9 -10 -10 -10 -7 -7 -5 -5 -5 -3 -3 -3 -2 -1 -1 -1 -1 -2 -3 -4 -3 -3 -3 -4 -3 -2 -2 -2 -2 -2 -2 -2 -3 -3 -3 -4 -4 -5 -6 -8 -8 -8 -8 -9 -9 -9 -9 -9
-5 -5 -6 -6 -6 -7 -8 -9 -8 -6 -6 -7 -6 -5 -4 -3 -2 -2 -2 -1 -1 -1 -3 -2 -2 -3 -2 -4 -4 -2 -1 -2 -2 -3 -2 -1 -1 -2 -2 -3 -3 -3 -4 -5 -6 -8 -8 -8 -9 -9 -9 -9 -10 -9
-4 -5 -5 -6 -7 -8 -7 -7 -8 -6 -6 -6 -6 -6 -5 -5 -6 -5 -5 -7 -5 -3 -3 -3 -3 -3 -4 -2 -2 -1 -2 -3 -3 -3 -4 -4 -4 -2 -1 -2 -3 -3 -3 -5 -6 -7 -8 -8 -8 -8 -9 -10 -10 -10
-5 -6 -6 -7 -7 -9 -9 -7 -8 -8 -8 -7 -6 -7 -7 -7 -7 -6 -7 -7 -6 -6 -4 -4 -5 -6 -3 -2 -2 -2 -2 -3 -4 -6 -5 -6 -6 -4 -5 -2 -2 -3 -3 -4 -5 -7 -7 -8 -8 -8 -9 -10 -9 -10
-6 -7 -7 -7 -10 -11 -10 -8 -7 -7 -8 -8 -9 -9 -8 -9 -9 -8 -9 -9 -8 -9 -8 -7 -7 -4 -6 -3 -5 -2 -2 -4 -5 -7 -7 -8 -10 -8 -6 -5 -4 -2 -2 -3 -4 -6 -8 -7 -8 -9 -9 -10 -10 -10
-6 -7 -7 -9 -10 -11 -9 -9 -8 -8 -8 -8 -9 -10 -10 -9 -10 -10 -10 -10 -12 -13 -12 -12 -11 -11 -10 -9 -8 -7 -7 -8 -8 -8 -12 -14 -12 -11 -10 -7 -3 -3 -2 -2 -3 -5 -6 -8 -8 -11 -10 -10 -10 -10
-6 -8 -10 -12 -13 -12 -9 -10 -12 -10 -12 -12 -10 -12 -12 -12 -11 -9 -10 -10 -10 -9 -9 -11 -11 -12 -11 -10 -10 -11 -11 -9 -8 -8 -8 -9 -10 -9 -9 -7 -6 -3 -2 -1 -2 -4 -5 -6 -8 -10 -12 -10 -10 -11
-9 -14 -15 -10 -12 -9 -9 -9 -11 -12 -13 -14 -13 -13 -16 -15 -11 -11 -12 -13 -12 -10 -10 -8 -9 -9 -9 -8 -7 -7 -5 -5 -6 -6 -8 -6 -7 -6 -4 -9 -8 -5 -3 -1 -2 -4 -5 -6 -7 -10 -13 -13 -12 -12
-21 -14 -13 -9 -9 -9 -9 -10 -11 -12 -10 -12 -12 -12 -12 -11 -12 -13 -14 -14 -10 -10 -8 -7 -6 -5 -6 -6 -6 -5 -4 -6 -6 -5 -4 -5 -5 -6 -4 -4 -8 -8 -3 -4 -2 -2 -4 -5 -7 -8 -11 -14 -14 -14
-13 -13 -12 -11 -9 -10 -11 -9 -9 -9 -11 -11 -12 -13 -11 -13 -12 -13 -15 -10 -9 -9 -10 -9 -9 -8 -7 -6 -5 -5 -6 -6 -5 -5 -5 -4 -4 -4 -4 -6 -8 -7 -3 -4 -2 -2 -2 -2 -3 -6 -9 -12 -14 -14
-15 -13 -14 -13 -12 -12 -11 -11 -12 -12 -10 -11 -13 -10 -11 -12 -13 -14 -9 -8 -9 -12 -14 -14 -14 -10 -10 -8 -6 -9 -9 -10 -6 -5 -5 -4 -5 -6 -6 -6 -6 -6 -6 -4 -3 -2 -2 -2 -2 -2 -3 -6 -8 -10
-14 -14 -12 -12 -11 -12 -11 -11 -11 -11 -13 -13 -12 -10 -10 -12 -13 -10 -9 -10 -11 -13 -14 -14 -15 -16 -17 -17 -17 -14 -12 -13 -12 -10 -9 -8 -6 -5 -4 -4 -4 -4 -4 -4 -3 -3 -2 -2 -2 -3 -3 -2 -2 -3
-12 -13 -14 -12 -12 -12 -12 -13 -13 -14 -13 -13 -11 -11 -10 -12 -8 -7 -9 -9 -11 -12 -14 -15 -16 -17 -18 -18 -18 -18 -14 -13 -14 -14 -12 -11 -11 -8 -6 -6 -4 -4 -3 -3 -3 -3 -4 -3 -2 -2 -3 -2 -2 -2
-11 -13 -13 -13 -13 -13 -13 -13 -12 -15 -14 -12 -12 -13 -14 -14 -14 -13 -13 -15 -16 -16 -17 -17 -18 -19 -19 -20 -18 -17 -18 -14 -13 -14 -14 -11 -12 -11 -10 -9 -8 -7 -6 -5 -4 -4 -3 -3 -2 -2 -3 -3 -2 -2
-12 -12 -13 -14 -14 -13 -14 -17 -17 -16 -16 -16 -15 -14 -14 -13 -16 -17 -19 -19 -19 -18 -18 -19 -20 -22 -21 -20 -18 -16 -15 -14 -14 -15 -16 -16 -15 -15 -14 -15 -16 -12 -10 -10 -7 -7 -6 -5 -5 -5 -4 -3 -3 -2
-10 -12 -13 -13 -13 -15 -16 -16 -15 -15 -13 -15 -14 -13 -15 -13 -14 -14 -20 -20 -18 -19 -19 -17 -16 -18 -15 -13 -15 -15 -12 -13 -13 -16 -19 -19 -19 -16 -12 -9 -8 -8 -8 -6 -5 -5 -5 -5 -5 -5 -6 -7 -7 -5
-12 -12 -13 -12 -12 -13 -15 -15 -13 -12 -12 -12 -12 -14 -13 -13 -13 -17 -19 -17 -16 -16 -16 -17 -18 -15 -13 -14 -12 -12 -14 -14 -13 -15 -16 -16 -16 -16 -15 -12 -8 -7 -6 -6 -6 -7 -7 -7 -7 -6 -6 -5 -5 -5

GFSWCAN_850_dewp_303.txt.gz
Dewpoint
1 2 2 1 2 1 3 3 3 3 4 3 5 4 -1 -5 -6 -4 -3 -3 -4 2 -0 -0 -0 -0 0 -0 1 -1 -2 -1 -2 1 3 5 2 -2 -4 -6 -4 -2 -0 0 -2 2 3 -8 -7 -5 -1 -3 -5 -5
0 0 0 1 1 2 3 3 4 4 4 4 3 -3 -5 -7 -5 -4 -3 -3 -4 -4 1 -2 -3 -2 0 0 0 -1 2 -1 -2 1 1 0 3 -1 -3 -0 -6 -3 -5 -1 -4 -4 -3 -7 -5 -3 -3 -4 -3 -3
-1 -1 -1 -0 -0 0 1 3 4 4 3 1 -3 -5 -5 -6 -4 -3 -3 -3 -4 -1 1 1 1 -4 -4 -4 -2 1 -0 -0 1 1 1 3 7 -1 2 -1 -3 -5 -6 -3 -4 -9 -7 -6 -6 -3 -3 -3 -3 -3
-2 -1 -1 -1 -1 -1 -0 1 3 2 -0 -4 -4 -6 -5 -4 -4 -5 -4 -3 -3 -3 2 1 -0 -1 -4 -6 -5 -1 0 -3 -1 1 5 4 6 -1 1 -1 -4 -5 -5 -5 -6 -7 -6 -5 -6 -5 -3 -3 -3 -3
-2 -1 -2 -1 -1 -1 -1 -1 -1 -4 -4 -5 -5 -6 -7 -7 -6 -5 -4 -4 -3 -0 2 1 0 -0 -2 -4 -3 -4 0 -0 -0 3 3 5 1 1 -1 -2 -1 -5 -6 -4 -3 -2 -3 -2 -3 -4 -2 -3 -3 -3
-3 -2 -1 -1 -1 -1 -1 -1 -1 -3 -4 -6 -10 -11 -10 -8 -4 -3 -2 -3 -1 -1 -2 4 0 1 1 0 -0 1 1 -0 1 3 3 1 1 1 5 1 -6 -8 -8 -6 -3 -0 -0 -0 -2 -2 -2 -2 -3 -3
-3 -4 -2 -1 -1 -2 -1 -1 -0 0 -2 -4 -4 -2 -0 -0 -2 1 2 0 1 -1 -2 2 1 -0 0 0 -0 -1 -0 -1 1 2 3 0 -2 -0 3 2 -8 -8 -6 -5 -2 -1 -1 -2 -3 -3 -2 -2 -2 -2
-3 -4 -4 -2 -2 -1 -2 -3 -2 -2 1 2 1 1 0 1 1 -4 -1 0 -1 -7 -2 4 0 -0 -0 0 1 -0 0 1 1 2 1 0 -1 -0 4 -3 -7 -5 -4 -4 -3 -3 -1 -1 -2 -2 -2 -2 -2 -2
-3 -3 -2 -2 -2 -2 -1 -1 -2 -3 -3 -3 -3 -3 -1 -1 -4 -5 -2 -5 -8 -4 1 -1 0 2 -1 1 0 0 -0 3 -0 2 -0 -2 -0 3 -3 -5 -5 -5 -3 -2 -3 -3 -1 -0 -1 -1 -2 -2 -2 -2
-4 -2 -1 -2 -2 -2 -2 -3 -5 -6 -6 -6 -6 -10 -7 -8 -11 -11 -9 -10 -17 -5 1 -1 -2 0 -2 -1 -0 -0 0 0 1 -2 -2 -0 -2 -5 -7 -6 -5 -3 -2 -1 -3 -2 -1 -0 -1 -1 -2 -2 -2 -3
-5 -3 -3 -2 -2 -3 -4 -5 -6 -7 -10 -14 -8 -1 -8 -11 -6 -5 -6 -2 -2 -2 -1 -2 -3 -1 -2 -0 -1 -3 -0 -3 -1 -1 -2 -1 -3 -5 -4 -2 -1 -1 -1 -3 -4 -4 -3 -1 -1 -1 -2 -2 -3 -4
-6 -5 -5 -4 -4 -4 -5 -6 -9 -13 -15 -5 -7 -10 -13 -6 -4 -1 -3 -5 -6 -3 -3 -2 -2 -2 -1 -2 -1 -1 -2 -2 -2 -3 -0 -1 -3 -5 -3 -1 -2 -3 -2 -1 -4 -4 -2 -2 -1 -1 -2 -3 -4 -6
-8 -8 -7 -7 -7 -7 -8 -9 -13 -10 -11 -14 -14 -13 -6 -8 3 -3 -3 -4 -2 -3 -2 -2 -1 -1 -2 -2 -2 -2 -0 -0 -3 -0 -1 -4 -4 -4 -2 -2 -4 -3 -3 -4 -4 -4 -3 -3 -3 -3 -4 -5 -6 -6
-11 -11 -10 -9 -9 -10 -10 -11 -15 -15 -6 -5 -5 -2 -1 -3 -5 -5 -4 -2 -3 -3 -3 -2 -1 -1 -1 -2 -3 -2 -3 -3 -1 0 -2 -3 -2 -1 -1 -2 -3 -3 -3 -4 -4 -4 -4 -4 -6 -7 -6 -6 -7 -7
-12 -11 -10 -10 -11 -12 -13 -13 -14 -10 -5 -6 -5 -3 -3 -3 -2 -2 -2 -3 -3 -2 -2 -2 -1 -2 -2 -1 -3 -3 -2 -1 -3 -3 1 -1 -1 -0 -1 -2 -3 -4 -4 -4 -4 -4 -5 -6 -7 -7 -7 -7 -7 -7
-11 -12 -12 -12 -12 -12 -12 -13 -14 -11 -6 -6 -6 -3 -3 -2 -0 -1 -1 -2 -3 -3 -3 -4 -3 -3 -2 -3 -3 -2 -4 -5 -1 0 -0 -1 -1 -1 -2 -3 -3 -3 -3 -4 -4 -4 -6 -7 -7 -7 -7 -8 -8 -8
-9 -8 -8 -8 -9 -10 -11 -13 -11 -7 -6 -6 -4 -4 -3 -3 -1 -1 -2 -1 -2 -2 -1 -4 -4 -4 -5 -4 -4 -6 -1 -1 -1 -1 -2 -1 -2 -2 -2 -3 -3 -4 -3 -3 -4 -5 -6 -7 -6 -8 -8 -8 -8 -8
-7 -7 -7 -8 -9 -10 -11 -11 -6 -5 -7 -7 -4 -3 -3 -2 -2 -1 -1 -1 -1 -2 -4 -3 -3 -4 -3 -5 -6 -2 -2 -1 -2 -2 -3 -2 -2 -2 -2 -3 -3 -3 -3 -3 -4 -5 -7 -6 -6 -6 -7 -9 -8 -9
-6 -6 -7 -8 -9 -10 -9 -7 -4 -6 -6 -6 -5 -4 -4 -3 -3 -3 -2 -2 -2 -3 -4 -4 -3 -5 -7 -2 -2 -2 -1 -1 -1 -2 -4 -5 -5 -4 -2 -2 -2 -2 -3 -4 -4 -5 -6 -6 -6 -6 -7 -8 -8 -8
-6 -7 -7 -9 -10 -10 -7 -5 -6 -8 -7 -6 -7 -7 -6 -6 -5 -5 -6 -6 -6 -6 -4 -6 -7 -6 -3 -2 -1 -1 -1 -2 -3 -4 -4 -3 -5 -8 -6 -4 -3 -2 -2 -3 -4 -4 -5 -6 -6 -7 -7 -7 -7 -7
-6 -7 -8 -9 -11 -7 -7 -6 -7 -8 -9 -8 -8 -8 -8 -8 -8 -8 -8 -9 -8 -8 -8 -8 -8 -7 -3 -1 -2 -2 -2 -2 -2 -4 -5 -6 -4 -4 -4 -8 -5 -4 -3 -3 -4 -4 -5 -5 -6 -7 -7 -8 -8 -7
-7 -8 -9 -10 -8 -8 -9 -8 -7 -7 -9 -9 -10 -11 -10 -9 -9 -11 -12 -11 -10 -11 -11 -10 -10 -9 -8 -7 -6 -7 -6 -6 -5 -6 -7 -7 -7 -5 -3 -3 -4 -5 -3 -3 -3 -3 -4 -5 -5 -6 -7 -9 -10 -9
-8 -9 -9 -11 -11 -9 -10 -10 -11 -10 -11 -11 -11 -12 -12 -12 -12 -11 -10 -11 -11 -10 -10 -10 -10 -11 -11 -11 -11 -11 -10 -10 -10 -9 -8 -8 -7 -7 -6 -4 -3 -3 -4 -5 -2 -3 -4 -4 -5 -5 -6 -10 -10 -10
-10 -12 -10 -9 -11 -9 -11 -10 -13 -13 -14 -12 -12 -13 -14 -13 -12 -12 -12 -13 -12 -9 -11 -10 -9 -10 -11 -9 -8 -8 -7 -6 -6 -6 -6 -6 -7 -7 -8 -6 -4 -3 -4 -4 -3 -2 -4 -4 -5 -6 -7 -9 -11 -11
-14 -13 -10 -9 -10 -10 -10 -11 -13 -12 -11 -13 -12 -12 -11 -12 -11 -12 -13 -14 -12 -12 -9 -9 -9 -9 -9 -9 -8 -8 -5 -4 -4 -5 -5 -4 -4 -4 -5 -7 -6 -4 -3 -6 -4 -3 -2 -3 -5 -5 -6 -8 -11 -12
-12 -11 -11 -10 -11 -11 -11 -9 -9 -10 -11 -11 -13 -13 -12 -11 -11 -11 -15 -12 -9 -7 -8 -8 -8 -9 -9 -7 -6 -6 -5 -4 -7 -6 -5 -4 -5 -4 -5 -5 -5 -4 -4 -8 -6 -3 -2 -2 -2 -3 -6 -7 -9 -11
-13 -13 -15 -13 -14 -13 -12 -12 -13 -11 -10 -10 -12 -11 -11 -11 -11 -15 -12 -10 -9 -9 -9 -8 -8 -9 -10 -10 -9 -8 -8 -6 -6 -6 -6 -6 -5 -4 -4 -4 -4 -4 -3 -4 -4 -3 -3 -4 -2 -3 -2 -3 -5 -8
-15 -15 -12 -12 -12 -12 -11 -11 -10 -10 -13 -14 -12 -11 -11 -12 -13 -12 -10 -8 -9 -10 -10 -11 -10 -10 -10 -11 -14 -11 -11 -11 -12 -9 -7 -5 -8 -8 -6 -5 -4 -4 -3 -3 -4 -3 -3 -2 -3 -2 -3 -2 -2 -2
-12 -14 -12 -10 -11 -12 -12 -12 -12 -14 -14 -14 -11 -11 -11 -12 -9 -9 -8 -8 -10 -10 -10 -9 -11 -15 -15 -17 -19 -19 -18 -17 -14 -13 -12 -6 -5 -5 -7 -6 -6 -6 -5 -4 -3 -3 -3 -3 -3 -3 -3 -3 -2 -3
-12 -14 -13 -13 -13 -13 -12 -13 -12 -10 -12 -12 -11 -11 -12 -12 -10 -9 -8 -9 -9 -10 -12 -15 -17 -19 -19 -20 -20 -22 -20 -18 -18 -14 -13 -9 -9 -14 -15 -15 -14 -12 -10 -8 -6 -5 -4 -4 -3 -3 -3 -3 -3 -3
-13 -12 -13 -14 -13 -12 -9 -11 -14 -16 -16 -11 -11 -12 -12 -12 -11 -12 -12 -12 -12 -13 -16 -16 -14 -16 -19 -21 -21 -22 -20 -20 -17 -14 -14 -16 -17 -17 -18 -15 -13 -12 -13 -11 -9 -7 -6 -6 -5 -4 -4 -4 -4 -4
-11 -11 -12 -13 -12 -11 -17 -10 -10 -10 -11 -11 -11 -11 -11 -10 -12 -12 -12 -17 -18 -17 -15 -17 -16 -11 -14 -17 -16 -16 -15 -15 -14 -13 -14 -16 -18 -18 -17 -16 -11 -7 -7 -7 -7 -6 -6 -5 -5 -6 -6 -5 -5 -5
-10 -10 -10 -12 -12 -11 -10 -10 -13 -12 -11 -12 -11 -11 -10 -11 -12 -11 -18 -18 -18 -16 -15 -15 -17 -19 -17 -13 -14 -11 -10 -11 -13 -13 -14 -16 -16 -16 -14 -13 -11 -9 -8 -8 -8 -7 -7 -8 -8 -9 -9 -8 -7 -7

GFSWCAN_850_dewp_306.txt.gz
Dewpoint
1 1 1 -0 -1 -0 0 -0 -0 1 2 2 3 3 2 4 -1 1 2 -2 0 0 1 1 1 1 0 1 3 1 2 0 1 5 8 8 6 0 -2 -5 -2 -0 2 3 2 4 6 -7 -7 -7 -0 -4 -6 -7
2 2 2 2 1 1 0 0 0 2 2 2 3 4 3 4 -4 1 -0 1 -2 -4 0 0 0 1 1 2 0 -1 2 -1 0 6 6 5 9 6 0 4 -5 -0 -2 2 0 -0 -3 -6 -4 -2 -4 -6 -4 -4
1 1 1 2 1 2 2 2 1 1 2 3 4 3 4 0 -5 -1 -1 -3 -5 0 1 1 -2 -1 0 0 -2 1 1 -0 -0 2 4 8 6 3 7 3 -0 -5 -6 -2 -2 -6 -7 -5 -6 -3 -4 -4 -4 -3
0 0 1 1 2 2 2 2 3 3 2 4 4 4 4 -5 -3 0 -2 -1 -4 -2 2 1 0 -2 -4 -2 1 1 -0 -0 1 3 3 5 7 1 6 2 1 -3 -5 -4 -3 -6 -7 -6 -6 -6 -3 -3 -3 -3
-1 -1 -1 -0 -0 0 0 1 2 3 3 4 4 2 -2 -0 -2 -3 -3 -3 -3 -2 3 2 -0 -0 0 -4 -4 -2 -3 -2 2 1 2 5 3 4 1 3 2 -5 -3 0 2 -1 -0 -1 -2 -5 -3 -3 -3 -3
-2 -1 -1 -1 -1 -1 -0 0 2 2 2 2 2 1 -2 -2 -5 -3 -2 -1 -2 -3 -1 4 1 1 1 1 1 1 1 0 3 4 4 2 1 3 7 4 -5 -5 -6 -6 -2 1 1 0 -3 -3 -3 -3 -3 -3
-1 -2 -1 -1 -1 -1 -1 -0 -0 0 0 1 0 1 -2 -4 -4 -2 -0 -0 -2 -2 -0 3 2 1 1 0 0 0 0 1 3 4 5 1 -2 2 7 5 -5 -7 -7 -5 -2 -1 -2 -2 -3 -3 -3 -2 -3 -2
-2 -1 -1 -1 -1 -1 -1 -1 -1 -0 -0 1 1 1 0 1 1 -0 -1 -0 -1 -1 -1 4 2 1 1 0 1 0 2 2 3 3 2 1 0 1 5 -1 -5 -6 -4 -4 -3 -3 -2 -1 -2 -3 -2 -2 -2 -2
-2 -2 -1 -2 -1 -1 -1 -1 -1 0 1 1 1 2 2 1 -2 -3 -2 0 -1 -4 2 1 2 3 1 1 1 1 2 4 1 3 1 -1 3 4 -0 -5 -5 -4 -2 -2 -4 -4 -2 -1 -1 -2 -2 -2 -2 -2
-3 -2 -1 -1 -2 -2 -1 -1 -1 0 1 1 1 -0 -3 -2 -3 -4 -3 -5 -9 -9 1 1 1 1 1 1 1 2 2 3 2 0 -0 1 -0 -4 -5 -5 -4 -3 -2 -1 -2 -2 -2 -0 -1 -1 -1 -2 -2 -2
-1 -1 -1 -1 -1 -2 -1 -1 -1 -0 -0 -2 -2 -2 -2 -2 -3 -7 -5 -2 -1 0 -0 -1 -2 0 -1 2 1 -2 2 -2 0 -0 -1 0 -2 -6 -3 -1 -1 -2 -1 -1 -4 -4 -2 -0 -1 -1 -2 -2 -2 -3
-2 -2 -2 -2 -2 -2 -4 -5 -3 -3 -4 -3 -5 -4 -4 -2 -2 0 -2 -3 -5 -2 -2 -1 -1 -0 -1 -1 -0 0 -1 -1 -0 -3 1 -1 -1 -3 -2 -1 -1 -1 -1 0 -1 -4 -1 -1 -1 -1 -2 -2 -3 -3
-2 -3 -3 -2 -3 -3 -5 -7 -8 -6 -7 -8 -11 -7 -7 -7 2 -1 -1 -2 -1 -2 -1 -1 0 -1 -2 -1 -1 -1 0 0 -2 2 -1 0 -3 -2 -1 -1 -2 -1 -1 -1 -3 -4 -1 -1 -1 -1 -2 -2 -3 -6
-6 -6 -6 -5 -5 -6 -10 -8 -7 -7 -6 -4 -4 -1 1 -2 -3 -2 -1 -1 -3 -1 -1 -1 -1 -1 -1 -1 -2 -1 -2 -2 -1 0 -0 0 -0 -0 -0 -1 -3 -2 -2 -4 -4 -4 -3 -3 -3 -3 -4 -5 -6 -7
-8 -8 -10 -10 -9 -10 -12 -13 -8 -5 -5 -5 -4 -2 -0 -0 -1 -2 -2 -2 -2 -2 -1 -1 -2 -2 -2 -1 -3 -3 -2 -1 -3 1 3 1 -0 -0 -1 -1 -2 -4 -4 -4 -4 -4 -4 -4 -5 -7 -7 -7 -7 -7
-10 -11 -12 -12 -12 -13 -13 -14 -13 -7 -6 -4 -3 -1 -1 -1 0 -1 -1 -1 -2 -2 -2 -3 -3 -2 -2 -2 -2 -2 -3 -3 1 0 -0 -1 -1 -1 -2 -2 -2 -3 -3 -3 -4 -4 -4 -6 -8 -7 -7 -7 -7 -7
-10 -9 -10 -11 -12 -13 -14 -13 -7 -6 -5 -4 -2 -3 -2 -0 -1 -1 -2 -1 -2 -3 1 -3 -3 -3 -5 -4 -4 -1 1 -0 -1 -1 -1 -1 -1 -2 -2 -2 -3 -2 -2 -2 -3 -4 -5 -7 -6 -7 -8 -8 -8 -8
-8 -8 -9 -11 -13 -16 -17 -6 -5 -6 -5 -3 -0 -1 -1 -1 -1 -1 -2 -2 -3 -4 -4 -3 -5 -5 -3 -5 -1 -1 -1 -1 -1 -1 -1 -1 -2 -2 -2 -3 -3 -2 -2 -3 -3 -4 -5 -5 -5 -6 -6 -8 -9 -9
-8 -9 -10 -12 -15 -16 -10 -6 -4 -6 -5 -3 -2 -2 -2 -1 -2 -2 -2 -3 -3 -3 -3 -4 -5 -6 -2 -2 -1 -2 -2 -2 -2 -2 -3 -6 -6 -5 -3 -2 -2 -2 -3 -3 -3 -4 -5 -5 -5 -6 -6 -8 -8 -9
-8 -10 -12 -14 -17 -12 -5 -5 -6 -7 -6 -6 -5 -5 -4 -3 -3 -4 -4 -5 -4 -4 -4 -5 -5 -1 -1 -2 -1 -1 -1 -2 -2 -2 -2 -3 -4 -3 -3 -7 -6 -5 -3 -3 -3 -4 -4 -5 -5 -6 -6 -7 -7 -7
-9 -9 -10 -13 -12 -7 -6 -5 -7 -8 -7 -7 -7 -7 -7 -6 -6 -6 -7 -7 -6 -7 -7 -7 -6 -2 -5 -2 -2 -2 -1 -1 -2 -2 -2 -4 -4 -2 -2 -2 -6 -10 -10 -8 -3 -3 -4 -4 -5 -6 -6 -6 -7 -7
-8 -10 -11 -12 -7 -7 -8 -7 -7 -8 -8 -8 -8 -8 -7 -7 -7 -8 -9 -8 -9 -9 -9 -9 -8 -8 -6 -6 -6 -6 -6 -6 -4 -4 -5 -6 -5 -5 -5 -4 -3 -3 -7 -10 -9 -4 -3 -4 -4 -5 -6 -6 -7 -7
-9 -10 -8 -10 -10 -9 -9 -9 -11 -10 -9 -10 -11 -10 -11 -10 -10 -11 -10 -11 -10 -10 -10 -10 -10 -10 -10 -10 -10 -10 -10 -10 -10 -9 -9 -8 -8 -7 -7 -7 -6 -4 -3 -5 -6 -5 -3 -3 -3 -4 -5 -5 -7 -7
-11 -10 -8 -9 -9 -9 -10 -10 -13 -13 -11 -11 -12 -12 -12 -11 -11 -11 -11 -11 -8 -8 -9 -10 -10 -10 -10 -10 -8 -8 -6 -6 -6 -5 -5 -5 -5 -5 -6 -6 -6 -7 -5 -3 -6 -4 -4 -3 -3 -4 -5 -5 -6 -8
-13 -12 -9 -9 -10 -9 -10 -10 -12 -11 -11 -12 -11 -11 -9 -11 -10 -11 -12 -12 -10 -10 -9 -9 -9 -9 -9 -9 -7 -5 -5 -5 -6 -4 -8 -5 -5 -5 -5 -5 -5 -7 -6 -3 -3 -5 -6 -3 -3 -3 -4 -4 -5 -6
-10 -11 -10 -10 -11 -10 -10 -8 -9 -10 -11 -11 -12 -11 -10 -10 -9 -9 -14 -11 -7 -6 -7 -8 -9 -9 -7 -7 -6 -5 -5 -6 -5 -5 -5 -5 -4 -5 -5 -4 -4 -5 -5 -4 -3 -4 -7 -4 -3 -3 -3 -4 -5 -5
-11 -13 -14 -13 -14 -13 -12 -12 -12 -10 -9 -9 -11 -10 -9 -9 -9 -15 -11 -7 -7 -8 -8 -7 -8 -8 -9 -9 -9 -9 -9 -7 -5 -6 -6 -5 -5 -6 -6 -5 -5 -4 -4 -3 -3 -3 -3 -3 -3 -3 -3 -3 -4 -3
-15 -14 -11 -12 -12 -11 -10 -11 -10 -9 -12 -12 -10 -9 -10 -11 -13 -12 -9 -7 -7 -7 -8 -8 -8 -9 -9 -9 -9 -10 -15 -18 -17 -7 -8 -6 -6 -7 -7 -6 -6 -6 -5 -5 -4 -4 -4 -3 -3 -3 -3 -3 -3 -3
-13 -13 -10 -10 -12 -11 -11 -10 -11 -13 -13 -12 -10 -11 -12 -12 -8 -7 -6 -7 -8 -9 -9 -10 -9 -9 -11 -14 -16 -17 -19 -22 -20 -17 -13 -9 -5 -6 -10 -14 -14 -11 -9 -7 -6 -4 -4 -4 -3 -3 -3 -3 -3 -4
-13 -13 -12 -11 -11 -11 -12 -11 -8 -9 -11 -9 -10 -10 -11 -9 -8 -8 -7 -8 -8 -8 -8 -9 -10 -12 -14 -16 -16 -18 -21 -22 -22 -19 -18 -13 -10 -15 -17 -18 -18 -17 -15 -15 -15 -10 -7 -7 -5 -4 -4 -4 -4 -4
-13 -12 -12 -14 -12 -8 -7 -9 -11 -13 -13 -9 -11 -9 -10 -9 -10 -10 -9 -9 -9 -10 -12 -15 -18 -16 -15 -14 -11 -11 -16 -19 -20 -19 -16 -14 -14 -17 -18 -18 -18 -14 -10 -9 -9 -10 -9 -7 -6 -6 -5 -5 -5 -5
-10 -10 -11 -11 -9 -9 -12 -9 -9 -9 -9 -9 -9 -9 -9 -9 -10 -10 -11 -12 -16 -18 -14 -13 -15 -10 -12 -14 -15 -15 -15 -15 -11 -13 -13 -13 -14 -17 -18 -18 -16 -14 -11 -9 -7 -7 -6 -6 -7 -6 -6 -6 -6 -6
-9 -9 -10 -10 -10 -10 -9 -9 -11 -11 -10 -11 -10 -9 -9 -9 -10 -9 -13 -18 -18 -19 -17 -16 -16 -17 -20 -18 -13 -12 -9 -10 -10 -12 -12 -13 -14 -15 -15 -15 -14 -14 -15 -15 -14 -13 -12 -11 -10 -9 -9 -9 -9 -9